Year,Month,Day,Hour,Minute,Value (Times are PST for barometer in hPa)
2019,02,12,00,01,1002.80
2019,02,12,00,02,1002.80
2019,02,12,00,03,1002.80
2019,02,12,00,04,1002.80
2019,02,12,00,06,1002.90
2019,02,12,00,07,1002.90
2019,02,12,00,09,1002.90
2019,02,12,00,11,1003.00
2019,02,12,00,12,1003.00
2019,02,12,00,13,1003.00
2019,02,12,00,14,1003.10
2019,02,12,00,16,1003.10
2019,02,12,00,17,1003.10
2019,02,12,00,18,1003.10
2019,02,12,00,19,1003.10
2019,02,12,00,21,1003.20
2019,02,12,00,22,1003.20
2019,02,12,00,23,1003.20
2019,02,12,00,24,1003.20
2019,02,12,00,26,1003.20
2019,02,12,00,27,1003.20
2019,02,12,00,28,1003.20
2019,02,12,00,29,1003.20
2019,02,12,00,30,1003.20
2019,02,12,00,32,1003.20
2019,02,12,00,33,1003.20
2019,02,12,00,34,1003.30
2019,02,12,00,36,1003.20
2019,02,12,00,37,1003.10
2019,02,12,00,38,1003.10
2019,02,12,00,39,1003.10
2019,02,12,00,41,1003.00
2019,02,12,00,42,1003.00
2019,02,12,00,43,1003.00
2019,02,12,00,44,1003.00
2019,02,12,00,46,1002.90
2019,02,12,00,47,1002.90
2019,02,12,00,48,1002.90
2019,02,12,00,49,1002.90
2019,02,12,00,51,1002.90
2019,02,12,00,52,1002.90
2019,02,12,00,53,1002.90
2019,02,12,00,54,1002.80
2019,02,12,00,55,1002.80
2019,02,12,00,56,1002.80
2019,02,12,00,57,1002.80
2019,02,12,00,58,1002.80
2019,02,12,00,59,1002.80
2019,02,12,01,00,1002.80
2019,02,12,01,01,1002.80
2019,02,12,01,02,1002.80
2019,02,12,01,03,1002.80
2019,02,12,01,04,1002.70
2019,02,12,01,06,1002.60
2019,02,12,01,07,1002.60
2019,02,12,01,08,1002.60
2019,02,12,01,09,1002.60
2019,02,12,01,10,1002.50
2019,02,12,01,11,1002.50
2019,02,12,01,12,1002.60
2019,02,12,01,13,1002.60
2019,02,12,01,14,1002.70
2019,02,12,01,15,1002.70
2019,02,12,01,16,1002.70
2019,02,12,01,17,1002.70
2019,02,12,01,18,1002.60
2019,02,12,01,19,1002.70
2019,02,12,01,20,1002.70
2019,02,12,01,21,1002.70
2019,02,12,01,22,1002.70
2019,02,12,01,23,1002.70
2019,02,12,01,24,1002.70
2019,02,12,01,25,1002.70
2019,02,12,01,26,1002.70
2019,02,12,01,27,1002.70
2019,02,12,01,28,1002.70
2019,02,12,01,29,1002.80
2019,02,12,01,30,1002.70
2019,02,12,01,31,1002.70
2019,02,12,01,32,1002.70
2019,02,12,01,33,1002.70
2019,02,12,01,34,1002.80
2019,02,12,01,35,1002.80
2019,02,12,01,36,1002.80
2019,02,12,01,37,1002.80
2019,02,12,01,38,1002.80
2019,02,12,01,39,1002.70
2019,02,12,01,40,1002.80
2019,02,12,01,41,1002.80
2019,02,12,01,42,1002.80
2019,02,12,01,43,1002.90
2019,02,12,01,44,1002.90
2019,02,12,01,45,1002.80
2019,02,12,01,46,1002.80
2019,02,12,01,47,1002.80
2019,02,12,01,48,1002.80
2019,02,12,01,49,1002.80
2019,02,12,01,50,1002.80
2019,02,12,01,51,1002.70
2019,02,12,01,52,1002.70
2019,02,12,01,53,1002.80
2019,02,12,01,54,1002.80
2019,02,12,01,55,1002.80
2019,02,12,01,56,1002.80
2019,02,12,01,57,1002.80
2019,02,12,01,58,1002.80
2019,02,12,01,59,1002.80
2019,02,12,02,00,1002.90
2019,02,12,02,01,1002.90
2019,02,12,02,02,1002.90
2019,02,12,02,03,1002.90
2019,02,12,02,04,1002.90
2019,02,12,02,05,1002.90
2019,02,12,02,06,1002.90
2019,02,12,02,07,1002.90
2019,02,12,02,08,1003.00
2019,02,12,02,09,1003.00
2019,02,12,02,10,1003.00
2019,02,12,02,11,1003.00
2019,02,12,02,12,1003.00
2019,02,12,02,13,1003.00
2019,02,12,02,14,1003.10
2019,02,12,02,15,1003.20
2019,02,12,02,16,1003.20
2019,02,12,02,17,1003.20
2019,02,12,02,18,1003.20
2019,02,12,02,19,1003.20
2019,02,12,02,20,1003.20
2019,02,12,02,21,1003.20
2019,02,12,02,22,1003.20
2019,02,12,02,23,1003.20
2019,02,12,02,24,1003.10
2019,02,12,02,25,1003.00
2019,02,12,02,26,1002.90
2019,02,12,02,27,1002.90
2019,02,12,02,28,1002.90
2019,02,12,02,29,1002.80
2019,02,12,02,30,1002.80
2019,02,12,02,31,1002.80
2019,02,12,02,32,1002.80
2019,02,12,02,33,1002.80
2019,02,12,02,34,1002.80
2019,02,12,02,35,1002.80
2019,02,12,02,36,1002.80
2019,02,12,02,37,1002.90
2019,02,12,02,38,1002.80
2019,02,12,02,39,1002.80
2019,02,12,02,40,1002.80
2019,02,12,02,41,1002.80
2019,02,12,02,42,1002.80
2019,02,12,02,43,1002.80
2019,02,12,02,44,1002.80
2019,02,12,02,45,1002.80
2019,02,12,02,46,1002.80
2019,02,12,02,47,1002.80
2019,02,12,02,48,1002.90
2019,02,12,02,49,1002.90
2019,02,12,02,50,1002.90
2019,02,12,02,51,1002.90
2019,02,12,02,52,1002.90
2019,02,12,02,53,1002.90
2019,02,12,02,54,1002.90
2019,02,12,02,55,1002.90
2019,02,12,02,56,1002.90
2019,02,12,02,57,1002.90
2019,02,12,02,58,1002.90
2019,02,12,02,59,1003.00
2019,02,12,03,00,1003.10
2019,02,12,03,01,1003.00
2019,02,12,03,02,1003.00
2019,02,12,03,03,1003.00
2019,02,12,03,04,1003.00
2019,02,12,03,05,1003.10
2019,02,12,03,06,1003.20
2019,02,12,03,07,1003.20
2019,02,12,03,08,1003.20
2019,02,12,03,09,1003.20
2019,02,12,03,10,1003.30
2019,02,12,03,11,1003.30
2019,02,12,03,12,1003.40
2019,02,12,03,13,1003.40
2019,02,12,03,14,1003.40
2019,02,12,03,15,1003.40
2019,02,12,03,16,1003.40
2019,02,12,03,17,1003.40
2019,02,12,03,18,1003.40
2019,02,12,03,19,1003.40
2019,02,12,03,20,1003.30
2019,02,12,03,21,1003.30
2019,02,12,03,22,1003.30
2019,02,12,03,23,1003.30
2019,02,12,03,24,1003.30
2019,02,12,03,25,1003.20
2019,02,12,03,26,1003.10
2019,02,12,03,27,1003.00
2019,02,12,03,28,1002.90
2019,02,12,03,29,1002.90
2019,02,12,03,30,1002.90
2019,02,12,03,31,1002.90
2019,02,12,03,32,1002.90
2019,02,12,03,33,1002.90
2019,02,12,03,34,1002.90
2019,02,12,03,35,1002.90
2019,02,12,03,36,1002.80
2019,02,12,03,37,1002.80
2019,02,12,03,38,1002.80
2019,02,12,03,39,1002.80
2019,02,12,03,40,1002.80
2019,02,12,03,41,1002.80
2019,02,12,03,42,1002.80
2019,02,12,03,43,1002.70
2019,02,12,03,44,1002.60
2019,02,12,03,45,1002.50
2019,02,12,03,46,1002.50
2019,02,12,03,47,1002.50
2019,02,12,03,48,1002.40
2019,02,12,03,49,1002.40
2019,02,12,03,50,1002.40
2019,02,12,03,51,1002.40
2019,02,12,03,52,1002.40
2019,02,12,03,53,1002.40
2019,02,12,03,54,1002.40
2019,02,12,03,55,1002.40
2019,02,12,03,56,1002.40
2019,02,12,03,57,1002.40
2019,02,12,03,58,1002.40
2019,02,12,03,59,1002.40
2019,02,12,04,00,1002.40
2019,02,12,04,01,1002.40
2019,02,12,04,02,1002.40
2019,02,12,04,03,1002.40
2019,02,12,04,04,1002.40
2019,02,12,04,05,1002.40
2019,02,12,04,06,1002.40
2019,02,12,04,07,1002.40
2019,02,12,04,08,1002.40
2019,02,12,04,09,1002.40
2019,02,12,04,10,1002.40
2019,02,12,04,11,1002.40
2019,02,12,04,12,1002.40
2019,02,12,04,13,1002.40
2019,02,12,04,14,1002.40
2019,02,12,04,15,1002.40
2019,02,12,04,16,1002.40
2019,02,12,04,17,1002.30
2019,02,12,04,18,1002.30
2019,02,12,04,19,1002.40
2019,02,12,04,20,1002.40
2019,02,12,04,21,1002.40
2019,02,12,04,22,1002.40
2019,02,12,04,23,1002.40
2019,02,12,04,24,1002.40
2019,02,12,04,26,1002.50
2019,02,12,04,27,1002.60
2019,02,12,04,28,1002.60
2019,02,12,04,29,1002.60
2019,02,12,04,31,1002.70
2019,02,12,04,32,1002.70
2019,02,12,04,33,1002.60
2019,02,12,04,34,1002.60
2019,02,12,04,36,1002.50
2019,02,12,04,37,1002.50
2019,02,12,04,38,1002.60
2019,02,12,04,39,1002.70
2019,02,12,04,41,1002.70
2019,02,12,04,42,1002.70
2019,02,12,04,43,1002.70
2019,02,12,04,44,1002.60
2019,02,12,04,46,1002.60
2019,02,12,04,47,1002.70
2019,02,12,04,48,1002.70
2019,02,12,04,49,1002.70
2019,02,12,04,51,1002.70
2019,02,12,04,52,1002.70
2019,02,12,04,53,1002.70
2019,02,12,04,54,1002.80
2019,02,12,04,56,1002.80
2019,02,12,04,57,1002.90
2019,02,12,04,58,1002.90
2019,02,12,04,59,1002.90
2019,02,12,05,01,1002.90
2019,02,12,05,02,1002.90
2019,02,12,05,03,1002.90
2019,02,12,05,04,1002.90
2019,02,12,05,06,1002.90
2019,02,12,05,07,1002.90
2019,02,12,05,08,1002.90
2019,02,12,05,09,1002.90
2019,02,12,05,11,1002.90
2019,02,12,05,12,1002.90
2019,02,12,05,13,1002.90
2019,02,12,05,14,1002.90
2019,02,12,05,16,1002.80
2019,02,12,05,17,1002.80
2019,02,12,05,18,1002.70
2019,02,12,05,19,1002.60
2019,02,12,05,21,1002.40
2019,02,12,05,22,1002.40
2019,02,12,05,23,1002.40
2019,02,12,05,24,1002.30
2019,02,12,05,26,1002.30
2019,02,12,05,27,1002.20
2019,02,12,05,28,1002.20
2019,02,12,05,29,1002.20
2019,02,12,05,31,1002.10
2019,02,12,05,32,1002.10
2019,02,12,05,33,1002.00
2019,02,12,05,34,1002.00
2019,02,12,05,36,1002.00
2019,02,12,05,37,1002.10
2019,02,12,05,38,1002.10
2019,02,12,05,39,1002.10
2019,02,12,05,41,1002.00
2019,02,12,05,42,1002.10
2019,02,12,05,43,1002.00
2019,02,12,05,44,1002.10
2019,02,12,05,45,1002.00
2019,02,12,05,46,1002.00
2019,02,12,05,47,1001.90
2019,02,12,05,48,1001.90
2019,02,12,05,49,1001.90
2019,02,12,05,50,1001.90
2019,02,12,05,51,1001.90
2019,02,12,05,52,1002.10
2019,02,12,05,53,1002.20
2019,02,12,05,54,1002.30
2019,02,12,05,55,1002.40
2019,02,12,05,56,1002.40
2019,02,12,05,57,1002.40
2019,02,12,05,58,1002.40
2019,02,12,05,59,1002.40
2019,02,12,06,00,1002.40
2019,02,12,06,01,1002.40
2019,02,12,06,02,1002.40
2019,02,12,06,03,1002.50
2019,02,12,06,04,1002.50
2019,02,12,06,05,1002.50
2019,02,12,06,06,1002.50
2019,02,12,06,07,1002.50
2019,02,12,06,08,1002.50
2019,02,12,06,09,1002.50
2019,02,12,06,10,1002.60
2019,02,12,06,11,1002.70
2019,02,12,06,12,1002.70
2019,02,12,06,13,1002.70
2019,02,12,06,14,1002.70
2019,02,12,06,15,1002.70
2019,02,12,06,16,1002.80
2019,02,12,06,17,1002.80
2019,02,12,06,18,1002.70
2019,02,12,06,19,1002.70
2019,02,12,06,20,1002.70
2019,02,12,06,21,1002.70
2019,02,12,06,22,1002.70
2019,02,12,06,23,1002.70
2019,02,12,06,24,1002.70
2019,02,12,06,25,1002.70
2019,02,12,06,26,1002.60
2019,02,12,06,27,1002.50
2019,02,12,06,28,1002.50
2019,02,12,06,29,1002.40
2019,02,12,06,30,1002.40
2019,02,12,06,32,1002.40
2019,02,12,06,33,1002.40
2019,02,12,06,34,1002.40
2019,02,12,06,35,1002.40
2019,02,12,06,36,1002.40
2019,02,12,06,37,1002.40
2019,02,12,06,38,1002.40
2019,02,12,06,39,1002.40
2019,02,12,11,19,1002.30
2019,02,12,11,21,1002.30
2019,02,12,11,22,1002.30
2019,02,12,11,23,1002.30
2019,02,12,11,24,1002.30
2019,02,12,11,25,1002.30
2019,02,12,11,26,1002.30
2019,02,12,11,27,1002.30
2019,02,12,11,28,1002.30
2019,02,12,11,29,1002.30
2019,02,12,11,30,1002.30
2019,02,12,11,31,1002.20
2019,02,12,11,32,1002.20
2019,02,12,11,33,1002.30
2019,02,12,11,34,1002.30
2019,02,12,11,35,1002.30
2019,02,12,11,36,1002.20
2019,02,12,11,37,1002.20
2019,02,12,11,38,1002.20
2019,02,12,11,39,1002.10
2019,02,12,11,40,1002.10
2019,02,12,11,41,1002.00
2019,02,12,11,42,1002.10
2019,02,12,11,43,1002.10
2019,02,12,11,44,1002.00
2019,02,12,11,45,1002.00
2019,02,12,11,46,1002.00
2019,02,12,11,47,1002.00
2019,02,12,11,48,1002.00
2019,02,12,11,49,1002.00
2019,02,12,11,50,1002.00
2019,02,12,11,51,1002.00
2019,02,12,11,52,1002.00
2019,02,12,11,53,1002.00
2019,02,12,11,54,1002.00
2019,02,12,11,55,1002.00
2019,02,12,11,56,1002.00
2019,02,12,11,57,1002.00
2019,02,12,11,58,1002.00
2019,02,12,11,59,1001.90
2019,02,12,12,00,1001.90
2019,02,12,12,01,1001.90
2019,02,12,12,02,1001.90
2019,02,12,12,03,1001.90
2019,02,12,12,04,1001.90
2019,02,12,12,05,1001.90
2019,02,12,12,06,1001.90
2019,02,12,12,07,1001.90
2019,02,12,12,08,1001.90
2019,02,12,12,09,1002.00
2019,02,12,12,10,1001.90
2019,02,12,12,11,1001.90
2019,02,12,12,12,1001.90
2019,02,12,12,13,1001.90
2019,02,12,12,14,1001.90
2019,02,12,12,15,1001.90
2019,02,12,12,16,1001.90
2019,02,12,12,17,1001.90
2019,02,12,12,18,1001.90
2019,02,12,12,19,1001.90
2019,02,12,12,20,1002.00
2019,02,12,12,21,1002.00
2019,02,12,12,22,1002.00
2019,02,12,12,23,1002.00
2019,02,12,12,24,1002.00
2019,02,12,12,25,1002.00
2019,02,12,12,26,1002.00
2019,02,12,12,27,1002.00
2019,02,12,12,28,1002.00
2019,02,12,12,29,1002.00
2019,02,12,12,30,1002.00
2019,02,12,12,32,1002.00
2019,02,12,12,33,1002.00
2019,02,12,12,34,1002.00
2019,02,12,12,35,1002.00
2019,02,12,12,36,1002.00
2019,02,12,12,37,1002.00
2019,02,12,12,38,1002.00
2019,02,12,12,39,1002.00
2019,02,12,12,40,1001.90
2019,02,12,12,41,1001.90
2019,02,12,12,42,1001.90
2019,02,12,12,43,1001.90
2019,02,12,12,44,1001.90
2019,02,12,12,45,1001.90
2019,02,12,12,46,1001.90
2019,02,12,12,47,1001.90
2019,02,12,12,48,1001.90
2019,02,12,12,49,1001.90
2019,02,12,12,50,1001.90
2019,02,12,12,51,1001.90
2019,02,12,12,52,1001.90
2019,02,12,12,53,1001.90
2019,02,12,12,54,1001.90
2019,02,12,12,55,1001.80
2019,02,12,12,56,1001.80
2019,02,12,12,57,1001.80
2019,02,12,12,58,1001.80
2019,02,12,12,59,1001.80
2019,02,12,13,00,1001.80
2019,02,12,13,01,1001.80
2019,02,12,13,02,1001.80
2019,02,12,13,03,1001.80
2019,02,12,13,04,1001.80
2019,02,12,13,05,1001.80
2019,02,12,13,06,1001.80
2019,02,12,13,07,1001.80
2019,02,12,13,08,1001.80
2019,02,12,13,09,1001.80
2019,02,12,13,10,1001.80
2019,02,12,13,11,1001.80
2019,02,12,13,12,1001.80
2019,02,12,13,13,1001.80
2019,02,12,13,14,1001.90
2019,02,12,13,15,1001.80
2019,02,12,13,16,1001.80
2019,02,12,13,17,1001.80
2019,02,12,13,18,1001.80
2019,02,12,13,19,1001.80
2019,02,12,13,20,1001.80
2019,02,12,13,21,1001.80
2019,02,12,13,22,1001.90
2019,02,12,13,23,1001.90
2019,02,12,13,24,1001.80
2019,02,12,13,25,1001.80
2019,02,12,13,26,1001.80
2019,02,12,13,27,1001.80
2019,02,12,13,28,1001.80
2019,02,12,13,29,1001.80
2019,02,12,13,30,1001.80
2019,02,12,13,31,1001.80
2019,02,12,13,32,1001.80
2019,02,12,13,33,1001.80
2019,02,12,13,34,1001.80
2019,02,12,13,35,1001.80
2019,02,12,13,36,1001.80
2019,02,12,13,37,1001.80
2019,02,12,13,38,1001.80
2019,02,12,13,39,1001.70
2019,02,12,13,40,1001.80
2019,02,12,13,41,1001.70
2019,02,12,13,42,1001.70
2019,02,12,13,43,1001.70
2019,02,12,13,44,1001.60
2019,02,12,13,45,1001.60
2019,02,12,13,46,1001.70
2019,02,12,13,47,1001.70
2019,02,12,13,48,1001.60
2019,02,12,13,49,1001.70
2019,02,12,13,50,1001.60
2019,02,12,13,51,1001.60
2019,02,12,13,52,1001.60
2019,02,12,13,53,1001.50
2019,02,12,13,54,1001.50
2019,02,12,13,55,1001.40
2019,02,12,13,56,1001.40
2019,02,12,13,57,1001.50
2019,02,12,13,58,1001.40
2019,02,12,13,59,1001.40
2019,02,12,14,00,1001.40
2019,02,12,14,01,1001.40
2019,02,12,14,02,1001.40
2019,02,12,14,03,1001.40
2019,02,12,14,04,1001.40
2019,02,12,14,05,1001.50
2019,02,12,14,06,1001.50
2019,02,12,14,07,1001.50
2019,02,12,14,08,1001.50
2019,02,12,14,09,1001.50
2019,02,12,14,10,1001.60
2019,02,12,14,11,1001.50
2019,02,12,14,12,1001.50
2019,02,12,14,13,1001.50
2019,02,12,14,14,1001.50
2019,02,12,14,15,1001.50
2019,02,12,14,16,1001.50
2019,02,12,14,17,1001.50
2019,02,12,14,18,1001.50
2019,02,12,14,19,1001.50
2019,02,12,14,20,1001.60
2019,02,12,14,21,1001.60
2019,02,12,14,22,1001.60
2019,02,12,14,23,1001.70
2019,02,12,14,24,1001.70
2019,02,12,14,25,1001.70
2019,02,12,14,26,1001.60
2019,02,12,14,27,1001.60
2019,02,12,14,28,1001.60
2019,02,12,14,29,1001.70
2019,02,12,14,30,1001.70
2019,02,12,14,31,1001.70
2019,02,12,14,32,1001.70
2019,02,12,14,33,1001.70
2019,02,12,14,34,1001.70
2019,02,12,14,35,1001.70
2019,02,12,14,36,1001.70
2019,02,12,14,37,1001.70
2019,02,12,14,38,1001.70
2019,02,12,14,39,1001.70
2019,02,12,14,40,1001.70
2019,02,12,14,41,1001.70
2019,02,12,14,42,1001.60
2019,02,12,14,43,1001.60
2019,02,12,14,44,1001.60
2019,02,12,14,45,1001.50
2019,02,12,14,46,1001.50
2019,02,12,14,47,1001.60
2019,02,12,14,48,1001.60
2019,02,12,14,49,1001.60
2019,02,12,14,50,1001.70
2019,02,12,14,51,1001.60
2019,02,12,14,52,1001.60
2019,02,12,14,53,1001.60
2019,02,12,14,54,1001.50
2019,02,12,14,56,1001.60
2019,02,12,14,57,1001.60
2019,02,12,14,59,1001.70
2019,02,12,15,00,1001.80
2019,02,12,15,01,1001.70
2019,02,12,15,03,1001.70
2019,02,12,15,04,1001.70
2019,02,12,15,06,1001.60
2019,02,12,15,07,1001.60
2019,02,12,15,08,1001.60
2019,02,12,15,09,1001.60
2019,02,12,15,11,1001.60
2019,02,12,15,12,1001.60
2019,02,12,15,13,1001.50
2019,02,12,15,14,1001.60
2019,02,12,15,16,1001.50
2019,02,12,15,17,1001.50
2019,02,12,15,18,1001.40
2019,02,12,15,19,1001.40
2019,02,12,15,21,1001.50
2019,02,12,15,22,1001.60
2019,02,12,15,23,1001.60
2019,02,12,15,24,1001.60
2019,02,12,15,26,1001.70
2019,02,12,15,27,1001.70
2019,02,12,15,28,1001.70
2019,02,12,15,29,1001.60
2019,02,12,15,31,1001.60
2019,02,12,15,32,1001.60
2019,02,12,15,33,1001.60
2019,02,12,15,34,1001.60
2019,02,12,15,36,1001.70
2019,02,12,15,37,1001.70
2019,02,12,15,38,1001.70
2019,02,12,15,39,1001.70
2019,02,12,15,41,1001.70
2019,02,12,15,42,1001.70
2019,02,12,15,43,1001.80
2019,02,12,15,44,1001.80
2019,02,12,15,46,1001.80
2019,02,12,15,47,1001.80
2019,02,12,15,48,1001.80
2019,02,12,15,49,1001.80
2019,02,12,15,51,1001.80
2019,02,12,15,52,1001.80
2019,02,12,15,53,1001.80
2019,02,12,15,54,1001.80
2019,02,12,15,56,1001.80
2019,02,12,15,57,1001.80
2019,02,12,15,58,1001.80
2019,02,12,15,59,1001.80
2019,02,12,16,01,1001.80
2019,02,12,16,02,1001.80
2019,02,12,16,03,1001.80
2019,02,12,16,04,1001.80
2019,02,12,16,06,1001.70
2019,02,12,16,07,1001.70
2019,02,12,16,08,1001.70
2019,02,12,16,09,1001.70
2019,02,12,16,11,1001.80
2019,02,12,16,12,1001.80
2019,02,12,16,13,1001.80
2019,02,12,16,14,1001.80
2019,02,12,16,16,1001.80
2019,02,12,16,17,1001.80
2019,02,12,16,18,1001.80
2019,02,12,16,19,1001.80
2019,02,12,16,20,1001.80
2019,02,12,16,21,1001.80
2019,02,12,16,22,1001.80
2019,02,12,16,23,1001.80
2019,02,12,16,24,1001.80
2019,02,12,16,25,1001.80
2019,02,12,16,26,1001.80
2019,02,12,16,27,1001.80
2019,02,12,16,28,1001.80
2019,02,12,16,29,1001.80
2019,02,12,16,30,1001.80
2019,02,12,16,31,1001.80
2019,02,12,16,32,1001.80
2019,02,12,16,33,1001.80
2019,02,12,16,34,1001.80
2019,02,12,16,35,1001.80
2019,02,12,16,36,1001.90
2019,02,12,16,37,1001.90
2019,02,12,16,38,1001.90
2019,02,12,16,39,1001.90
2019,02,12,16,40,1001.90
2019,02,12,16,41,1001.90
2019,02,12,16,42,1001.90
2019,02,12,16,43,1001.90
2019,02,12,16,44,1001.90
2019,02,12,16,45,1001.90
2019,02,12,16,46,1001.90
2019,02,12,16,47,1001.90
2019,02,12,16,48,1001.90
2019,02,12,16,49,1001.90
2019,02,12,16,50,1001.90
2019,02,12,16,51,1001.90
2019,02,12,16,52,1002.00
2019,02,12,16,53,1001.90
2019,02,12,16,54,1002.00
2019,02,12,16,55,1002.00
2019,02,12,16,56,1002.00
2019,02,12,16,57,1002.00
2019,02,12,16,58,1002.00
2019,02,12,16,59,1002.00
2019,02,12,17,00,1002.00
2019,02,12,17,01,1002.00
2019,02,12,17,02,1002.00
2019,02,12,17,03,1002.00
2019,02,12,17,04,1002.10
2019,02,12,17,05,1002.10
2019,02,12,17,06,1002.20
2019,02,12,17,07,1002.20
2019,02,12,17,08,1002.30
2019,02,12,17,09,1002.30
2019,02,12,17,10,1002.30
2019,02,12,17,11,1002.30
2019,02,12,17,12,1002.20
2019,02,12,17,13,1002.30
2019,02,12,17,14,1002.30
2019,02,12,17,15,1002.30
2019,02,12,17,16,1002.30
2019,02,12,17,17,1002.20
2019,02,12,17,18,1002.20
2019,02,12,17,19,1002.20
2019,02,12,17,20,1002.30
2019,02,12,17,21,1002.30
2019,02,12,17,22,1002.30
2019,02,12,17,23,1002.30
2019,02,12,17,24,1002.30
2019,02,12,17,25,1002.30
2019,02,12,17,26,1002.30
2019,02,12,17,27,1002.30
2019,02,12,17,28,1002.30
2019,02,12,17,29,1002.30
2019,02,12,17,30,1002.40
2019,02,12,17,31,1002.40
2019,02,12,17,32,1002.40
2019,02,12,17,33,1002.40
2019,02,12,17,34,1002.40
2019,02,12,17,35,1002.40
2019,02,12,17,36,1002.40
2019,02,12,17,37,1002.40
2019,02,12,17,38,1002.40
2019,02,12,17,39,1002.40
2019,02,12,17,40,1002.40
2019,02,12,17,41,1002.40
2019,02,12,17,42,1002.40
2019,02,12,17,43,1002.40
2019,02,12,17,44,1002.40
2019,02,12,17,45,1002.40
2019,02,12,17,46,1002.40
2019,02,12,17,47,1002.50
2019,02,12,17,48,1002.50
2019,02,12,17,49,1002.60
2019,02,12,17,50,1002.60
2019,02,12,17,51,1002.60
2019,02,12,17,52,1002.70
2019,02,12,17,53,1002.70
2019,02,12,17,54,1002.80
2019,02,12,17,55,1002.80
2019,02,12,17,56,1002.80
2019,02,12,17,57,1002.80
2019,02,12,17,58,1002.80
2019,02,12,17,59,1002.80
2019,02,12,18,00,1002.80
2019,02,12,18,01,1002.80
2019,02,12,18,02,1002.80
2019,02,12,18,03,1002.80
2019,02,12,18,04,1002.80
2019,02,12,18,05,1002.80
2019,02,12,18,06,1002.80
2019,02,12,18,07,1002.80
2019,02,12,18,08,1002.80
2019,02,12,18,09,1002.80
2019,02,12,18,10,1002.80
2019,02,12,18,11,1002.80
2019,02,12,18,12,1002.80
2019,02,12,18,13,1002.80
2019,02,12,18,14,1002.80
2019,02,12,18,15,1002.90
2019,02,12,18,16,1002.90
2019,02,12,18,17,1002.80
2019,02,12,18,18,1002.80
2019,02,12,18,19,1002.80
2019,02,12,18,20,1002.80
2019,02,12,18,21,1002.80
2019,02,12,18,22,1002.80
2019,02,12,18,23,1002.80
2019,02,12,18,24,1002.90
2019,02,12,18,25,1002.90
2019,02,12,18,26,1002.90
2019,02,12,18,27,1002.90
2019,02,12,18,28,1002.90
2019,02,12,18,29,1002.90
2019,02,12,18,30,1002.90
2019,02,12,18,32,1002.90
2019,02,12,18,33,1002.90
2019,02,12,18,34,1002.90
2019,02,12,18,35,1002.90
2019,02,12,18,36,1002.90
2019,02,12,18,37,1002.90
2019,02,12,18,38,1003.00
2019,02,12,18,39,1003.00
2019,02,12,18,40,1003.10
2019,02,12,18,41,1003.00
2019,02,12,18,42,1003.10
2019,02,12,18,43,1003.10
2019,02,12,18,44,1003.10
2019,02,12,18,45,1003.10
2019,02,12,18,46,1003.10
2019,02,12,18,47,1003.10
2019,02,12,18,48,1003.10
2019,02,12,18,49,1003.10
2019,02,12,18,50,1003.10
2019,02,12,18,51,1003.10
2019,02,12,18,52,1003.10
2019,02,12,18,53,1003.10
2019,02,12,18,54,1003.10
2019,02,12,18,55,1003.20
2019,02,12,18,56,1003.20
2019,02,12,18,57,1003.20
2019,02,12,18,58,1003.20
2019,02,12,18,59,1003.20
2019,02,12,19,00,1003.20
2019,02,12,19,01,1003.20
2019,02,12,19,02,1003.30
2019,02,12,19,03,1003.30
2019,02,12,19,04,1003.30
2019,02,12,19,05,1003.30
2019,02,12,19,06,1003.40
2019,02,12,19,07,1003.40
2019,02,12,19,08,1003.40
2019,02,12,19,09,1003.40
2019,02,12,19,10,1003.40
2019,02,12,19,11,1003.40
2019,02,12,19,12,1003.40
2019,02,12,19,13,1003.40
2019,02,12,19,14,1003.40
2019,02,12,19,15,1003.40
2019,02,12,19,16,1003.40
2019,02,12,19,17,1003.40
2019,02,12,19,18,1003.40
2019,02,12,19,19,1003.40
2019,02,12,19,20,1003.40
2019,02,12,19,21,1003.40
2019,02,12,19,22,1003.40
2019,02,12,19,23,1003.40
2019,02,12,19,24,1003.40
2019,02,12,19,25,1003.40
2019,02,12,19,26,1003.30
2019,02,12,19,27,1003.30
2019,02,12,19,28,1003.30
2019,02,12,19,29,1003.40
2019,02,12,19,30,1003.40
2019,02,12,19,31,1003.40
2019,02,12,19,32,1003.40
2019,02,12,19,33,1003.40
2019,02,12,19,34,1003.40
2019,02,12,19,35,1003.30
2019,02,12,19,36,1003.30
2019,02,12,19,37,1003.40
2019,02,12,19,38,1003.30
2019,02,12,19,39,1003.30
2019,02,12,19,40,1003.30
2019,02,12,19,41,1003.30
2019,02,12,19,42,1003.30
2019,02,12,19,43,1003.30
2019,02,12,19,44,1003.20
2019,02,12,19,45,1003.20
2019,02,12,19,46,1003.20
2019,02,12,19,47,1003.20
2019,02,12,19,48,1003.20
2019,02,12,19,49,1003.20
2019,02,12,19,50,1003.20
2019,02,12,19,51,1003.20
2019,02,12,19,52,1003.20
2019,02,12,19,53,1003.20
2019,02,12,19,54,1003.20
2019,02,12,19,55,1003.20
2019,02,12,19,56,1003.20
2019,02,12,19,57,1003.20
2019,02,12,19,59,1003.20
2019,02,12,20,00,1003.20
2019,02,12,20,02,1003.10
2019,02,12,20,03,1003.10
2019,02,12,20,04,1003.20
2019,02,12,20,06,1003.10
2019,02,12,20,07,1003.10
2019,02,12,20,08,1003.10
2019,02,12,20,09,1003.10
2019,02,12,20,11,1003.10
2019,02,12,20,12,1003.00
2019,02,12,20,13,1003.00
2019,02,12,20,14,1003.00
2019,02,12,20,16,1003.00
2019,02,12,20,17,1003.00
2019,02,12,20,18,1002.90
2019,02,12,20,19,1002.90
2019,02,12,20,21,1002.90
2019,02,12,20,22,1002.90
2019,02,12,20,23,1002.90
2019,02,12,20,24,1002.90
2019,02,12,20,26,1002.90
2019,02,12,20,27,1002.90
2019,02,12,20,28,1002.90
2019,02,12,20,29,1002.90
2019,02,12,20,31,1002.90
2019,02,12,20,32,1002.80
2019,02,12,20,33,1002.80
2019,02,12,20,34,1002.90
2019,02,12,20,36,1002.90
2019,02,12,20,37,1002.90
2019,02,12,20,38,1002.90
2019,02,12,20,39,1002.90
2019,02,12,20,41,1002.90
2019,02,12,20,42,1002.90
2019,02,12,20,43,1002.90
2019,02,12,20,44,1002.90
2019,02,12,20,46,1002.90
2019,02,12,20,47,1002.90
2019,02,12,20,48,1002.90
2019,02,12,20,49,1002.90
2019,02,12,20,51,1002.90
2019,02,12,20,52,1002.90
2019,02,12,20,53,1002.90
2019,02,12,20,54,1002.90
2019,02,12,20,56,1002.90
2019,02,12,20,57,1002.90
2019,02,12,20,58,1002.90
2019,02,12,20,59,1002.90
2019,02,12,21,01,1002.90
2019,02,12,21,02,1002.90
2019,02,12,21,03,1002.90
2019,02,12,21,04,1002.90
2019,02,12,21,06,1002.90
2019,02,12,21,07,1002.90
2019,02,12,21,08,1002.90
2019,02,12,21,09,1002.90
2019,02,12,21,11,1002.90
2019,02,12,21,12,1002.90
2019,02,12,21,13,1002.90
2019,02,12,21,14,1002.90
2019,02,12,21,16,1002.90
2019,02,12,21,17,1002.90
2019,02,12,21,18,1002.90
2019,02,12,21,19,1002.90
2019,02,12,21,21,1002.90
2019,02,12,21,22,1002.80
2019,02,12,21,23,1002.80
2019,02,12,21,24,1002.80
2019,02,12,21,26,1002.80
2019,02,12,21,27,1002.80
2019,02,12,21,28,1002.80
2019,02,12,21,29,1002.80
2019,02,12,21,31,1002.90
2019,02,12,21,32,1002.90
2019,02,12,21,33,1002.90
2019,02,12,21,34,1002.90
2019,02,12,21,36,1002.80
2019,02,12,21,37,1002.80
2019,02,12,21,38,1002.80
2019,02,12,21,39,1002.80
2019,02,12,21,40,1002.80
2019,02,12,21,41,1002.80
2019,02,12,21,42,1002.80
2019,02,12,21,43,1002.80
2019,02,12,21,44,1002.80
2019,02,12,21,45,1002.80
2019,02,12,21,46,1002.70
2019,02,12,21,47,1002.70